Вернуться в каталог

STARLINK-32874

АктивенСвязьVLEO
NORAD 62954·PAYLOAD·🇺🇸 United States

Запущен Feb 11, 2025 с Vandenberg Space Force Base

Loading…

Ближайшие Пролёты (ближайшие 24 часа)

TLE

СвежийSource: CelesTrak SupGP

Эпоха: Sep 14, 2026, 22:51 UTC

1 62954C 25029G   26257.95256944  .00045798  00000+0  13536-2 0  2579
2 62954  53.1574  67.3311 0001229  83.5646 125.9613 15.34357225    15

Отслеживайте STARLINK-32874 в реальном времени с AllMySat

Download on the App Store